Location: Essen
(51.4609°N, 7.0127°E)
Time: 13:31:49
(UTC+01:00)

ISS - Pass Details

Date: 08 January 2018
Orbit: 402 x 407 km, 51.6° (Epoch: 22 January)

Event Time Altitude Azimuth Distance (km) Brightness Sun altitude
Exits shadow 05:06:01 11° 83° (E) 1,411 -0.2 -31.5°
Drops below altitude 10° 05:06:09 10° 82° (E) 1,470 -0.1 -31.5°
Sets 05:08:15 0° 83° (E) 2,332 1.2 -31.2°
